[[[{"header":{"parameterUnit":"kt","parameterCategory":2,"dx":1,"dy":1,"la1":30.253999710083008,"la2":30.299108505249023,"lo1":-89.0895004272461,"lo2":-89.04439544677734,"nx":28,"ny":28,"refTime":"2022-10-08T21:00:00:Z","depth":0,"parameterNumber":1,"parameterNumberName":"U-component_of_WINDS"},"data":[-5.4031,-5.4225,-5.4203,-5.4414,-5.443,-5.4571,-5.4615,-5.4668,-5.4705,-5.4869,-5.4959,-5.4956,-5.4984,-5.5086,-5.5183,-5.5179,-5.5224,-5.5308,-5.529,-5.4932,-5.4882,-5.4833,-5.4787,-5.5316,-5.5317,-5.5665,-5.5668,-5.5671,-5.3769,-5.3788,-5.3893,-5.3981,-5.407,-5.3976,-5.4037,-5.4119,-5.4247,-5.4293,-5.4381,-5.4524,-5.4633,-5.4632,-5.4734,-5.4823,-5.4786,-5.4853,-5.4848,-5.4855,-5.447,-5.4422,-5.4882,-5.4882,-5.4881,-5.4881,-5.4881,-5.4881,-5.3289,-5.3406,-5.3446,-5.356,-5.3597,-5.3656,-5.3764,-5.3758,-5.386,-5.3964,-5.3916,-5.4061,-5.4103,-5.4214,-5.4246,-5.4357,-5.4279,-5.4346,-5.4364,-5.4383,-5.4409,-5.3914,-5.4373,-5.4371,-5.437,-5.4369,-5.4368,0,-5.2931,-5.2906,-5.3005,-5.3098,-5.3179,-5.3249,-5.331,-5.3375,-5.3311,-5.3399,-5.3523,-5.3591,-5.3724,-5.3839,-5.3928,-5.3947,-5.3861,-5.3848,-5.3895,-5.3924,-5.3937,-5.3936,-5.3314,-5.3836,-5.3832,-5.3828,-5.3826,-5.3824,-5.2449,-5.2587,-5.2618,-5.269,-5.2718,-5.2836,-5.2902,-5.2835,-5.2908,-5.2972,-5.3078,-5.3191,-5.3278,-5.348,-5.3472,-5.3572,-5.3532,-5.3734,-5.3547,-5.3567,-5.3541,-5.3535,-5.355,-5.3774,-5.3781,-5.3786,-5.379,0,-5.218,-5.2143,-5.235,-5.2366,-5.2374,-5.2523,-5.2537,-5.265,-5.2631,-5.2785,-5.2817,-5.2789,-5.2912,-5.287,-5.3002,-5.2977,-5.3222,-5.3177,-5.3207,-5.3198,-5.3378,-5.3363,-5.3961,-5.4037,-5.3483,-5.3488,-5.3493,0,-5.1756,-5.194,-5.1874,-5.1997,-5.2198,-5.2126,-5.2327,-5.2331,-5.2366,-5.2486,-5.2378,-5.2494,-5.2422,-5.2531,-5.2494,-5.2686,-5.2709,-5.2703,-5.2693,-5.2717,-5.2718,-5.2759,-5.2735,-5.2657,-5.2654,-5.2651,-5.2649,0,-5.1343,-5.1522,-5.1718,-5.1754,-5.179,-5.1884,-5.1904,-5.1942,-5.2007,-5.2084,-5.2126,-5.2221,-5.2275,-5.235,-5.2303,-5.2177,-5.2534,-5.2353,-5.2529,-5.2531,-5.2615,-5.2611,-5.3146,-5.2645,-5.2644,-5.2643,-5.2642,0,-5.0997,-5.1076,-5.1367,-5.1394,-5.1444,-5.1574,-5.1663,-5.1763,-5.1811,-5.1796,-5.1857,-5.1782,-5.1943,-5.1766,-5.1989,-5.1839,-5.1898,-5.1905,-5.1917,-5.1934,-5.1739,-5.2052,-5.2561,-5.2616,-5.1943,-5.1937,-5.1932,0,-5.0536,-5.0818,-5.0759,-5.1036,-5.1161,-5.1033,-5.1175,-5.122,-5.1212,-5.1316,-5.1306,-5.1426,-5.1285,-5.1317,-5.1432,-5.1428,-5.1621,-5.14,-5.1556,-5.1562,-5.1552,-5.2018,-5.2107,-5.2453,-5.1856,-5.1864,-5.187,0,-5.0175,-5.0217,-5.0271,-5.0309,-5.0357,-5.0461,-5.0623,-5.0726,-5.08,-5.0861,-5.0998,-5.1163,-5.1065,-5.1119,-5.1068,-5.1191,-5.1488,-5.1069,-5.1069,-5.1149,-5.1814,-5.1898,-5.1956,-5.1427,-5.1436,-5.1443,-5.181,0,-4.9668,-4.9803,-4.9945,-5.0031,-5.0104,-5.0274,-5.023,-5.0312,-5.0255,-5.0243,-5.0441,-5.0468,-5.0574,-5.0627,-5.0574,-5.0865,-5.0811,-5.0705,-5.0534,-5.0838,-5.0959,-5.1008,-5.0358,-5.0352,-5.0348,-5.0344,0,0,-4.9238,-4.9432,-4.9362,-4.9517,-4.9575,-4.9441,-4.9627,-4.9667,-4.9753,-4.9796,-4.9699,-4.9939,-4.9966,-5.0212,-5.0303,-5.0344,-5.0394,-5.029,-5.0693,-5.0732,-5.0768,-5.0897,-5.0948,-5.0336,-5.0335,-5.0333,-5.0332,0,-4.9045,-4.9073,-4.9257,-4.9295,-4.935,-4.9327,-4.9371,-4.9402,-4.9403,-4.9595,-4.9484,-4.9597,-4.9791,-4.9835,-4.9883,-5.0257,-5.0169,-5.0292,-5.0509,-5.0649,-5.0694,-5.0733,-5.087,-5.092,-5.0321,-5.0321,-5.0322,0,-4.8685,-4.8707,-4.879,-4.8914,-4.8948,-4.908,-4.8888,-4.9034,-4.9131,-4.8979,-4.9173,-4.9183,-4.9238,-4.9474,-4.9578,-4.9494,-4.9967,-4.9808,-4.9835,-4.9848,-4.9981,-5.0035,-5.0083,-4.945,-4.9447,-4.9444,0,0,-4.8524,-4.8649,-4.8653,-4.8869,-4.8898,-4.8868,-4.8933,-4.8884,-4.8935,-4.8957,-4.8968,-4.9023,-4.9134,-4.921,-4.9312,-4.9577,-4.9585,-4.9703,-4.9744,-4.9778,-4.9809,-4.9951,-5.0004,-4.9434,-4.9433,-4.9433,0,0,-4.8448,-4.846,-4.8394,-4.864,-4.8692,-4.8711,-4.8845,-4.8765,-4.8853,-4.8829,-4.8754,-4.8765,-4.8985,-4.8999,-4.886,-4.9251,-4.9082,-4.9114,-4.9235,-4.9286,-4.9326,-4.932,-4.867,0,0,0,0,0,-4.8229,-4.8458,-4.8398,-4.8433,-4.8589,-4.8744,-4.8763,-4.8706,-4.8587,-4.8695,-4.8692,-4.8591,-4.8909,-4.8783,-4.8819,-4.8977,-4.9295,-4.9319,-4.9343,-4.956,-4.9614,-4.9659,0,0,0,0,0,0,-4.8242,-4.8284,-4.8392,-4.8421,-4.8455,-4.8735,-4.8521,-4.8512,-4.8574,-4.8553,-4.8595,-4.8593,-4.8548,-4.8761,-4.8794,-4.8946,-4.8659,-4.9304,-4.9325,-4.9344,-4.9578,-4.9622,-4.966,0,0,0,0,0,-4.8252,-4.8286,-4.8551,-4.8417,-4.8447,-4.8426,-4.8512,-4.8503,-4.855,-4.8546,-4.854,-4.8502,-4.8553,-4.8577,-4.8781,-4.8932,-4.8635,-4.8648,-4.9318,-4.9335,-4.9349,-4.96,0,0,0,0,0,0,-4.8259,-4.8279,-4.8556,-4.8563,-4.8326,-4.8409,-4.842,-4.8495,-4.8538,-4.8535,-4.8448,-4.843,-4.856,-4.8578,-4.8597,-4.8931,-4.8616,-4.8629,-4.8637,-4.9331,-4.9343,-4.9355,0,0,0,0,0,0,-4.826,-4.8286,-4.856,-4.8448,-4.8442,-4.8394,-4.8404,-4.8568,-4.854,-4.8437,-4.8423,-4.8439,-4.8532,-4.8579,-4.8593,-4.8852,-4.8601,-4.8614,-4.8622,-4.8628,-4.9341,-4.9351,0,0,0,0,0,0,-4.827,-4.8292,-4.8446,-4.8441,-4.8435,-4.8509,-4.8538,-4.8701,-4.8444,-4.8437,-4.842,-4.8408,-4.8537,-4.8549,-4.8592,-4.8845,-4.885,-4.8602,-4.861,-4.8616,-4.862,0,0,0,0,0,0,0,-4.8278,-4.8143,-4.8514,-4.8436,-4.843,-4.8628,-4.863,-4.8632,-4.8442,-4.8432,-4.8422,-4.8413,-4.8531,-4.8545,-4.8558,-4.884,0,0,-4.8601,-4.8607,0,0,0,0,0,0,0,0,-4.8132,-4.814,-4.8515,-4.8516,-4.8518,-4.8628,-4.863,-4.8631,-4.844,-4.8432,-4.8424,-4.8417,-4.8535,-4.8546,-4.8557,0,0,0,0,0,0,0,0,0,0,0,0,0,0,0,-4.8515,-4.8516,0,-4.8628,-4.863,-4.8631,-4.8439,-4.8432,-4.8426,-4.842,-4.8538,-4.8547,-4.8556,0,0,0,0,0,0,0,0,0,0,0,0,0,0,0,0,0,0,0,0,0,0,0,0,0,0,0,0,0,0,0,0,0,0,0,0,0,0,0,0,0,0,0,0,0,0,0,0,0,0,0,0,0,0,0,0,0,0,0,0,0,0,0,0,0,0,0,0,0]}],[{"header":{"parameterUnit":"kt","parameterCategory":2,"dx":1,"dy":1,"la1":30.253999710083008,"la2":30.299108505249023,"lo1":-89.0895004272461,"lo2":-89.04439544677734,"nx":28,"ny":28,"refTime":"2022-10-08T21:00:00:Z","depth":0,"parameterNumber":2,"parameterNumberName":"V-component_of_WINDS"},"data":[-8.9288,-8.9491,-8.9499,-8.9733,-8.9779,-8.9939,-8.9998,-9.0074,-9.0136,-9.0325,-9.0434,-9.0459,-9.052,-9.0649,-9.0764,-9.0772,-9.0821,-9.0888,-9.0885,-9.0581,-9.0539,-9.0499,-9.0453,-9.0899,-9.0899,-9.12,-9.1203,-9.1205,-8.9064,-8.9113,-8.9239,-8.9366,-8.9474,-8.9414,-8.9508,-8.9601,-8.9744,-8.9822,-8.9929,-9.0094,-9.0224,-9.0263,-9.0388,-9.0479,-9.0457,-9.0513,-9.0506,-9.0516,-9.0191,-9.0142,-9.0529,-9.0529,-9.0529,-9.0529,-9.0529,-9.0529,-8.8658,-8.878,-8.8862,-8.8999,-8.9064,-8.9148,-8.9264,-8.9293,-8.9414,-8.9548,-8.953,-8.9691,-8.9767,-8.9919,-8.997,-9.0093,-9.0032,-9.0094,-9.0109,-9.0126,-9.0144,-8.971,-9.0114,-9.0113,-9.0112,-9.0111,-9.011,0,-8.8364,-8.8362,-8.8483,-8.8608,-8.8707,-8.8803,-8.8891,-8.8963,-8.8956,-8.9056,-8.92,-8.9284,-8.9448,-8.9582,-8.9699,-8.9739,-8.9684,-8.9678,-8.9721,-8.9733,-8.973,-8.9735,-8.9205,-8.9666,-8.9662,-8.966,-8.9657,-8.9656,-8.7955,-8.8097,-8.8184,-8.8269,-8.8319,-8.8454,-8.8536,-8.852,-8.8606,-8.871,-8.8816,-8.8951,-8.9058,-8.9285,-8.9313,-8.9434,-8.9408,-8.9584,-8.9426,-8.9432,-8.9412,-8.9404,-8.9418,-8.9616,-8.9621,-8.9625,-8.9628,0,-8.7725,-8.7736,-8.7955,-8.8027,-8.8049,-8.8197,-8.8257,-8.8376,-8.8389,-8.8554,-8.8592,-8.8613,-8.8753,-8.8753,-8.8912,-8.8907,-8.9145,-8.9116,-8.9119,-8.9114,-8.9272,-8.9257,-8.9783,-8.9851,-8.9388,-8.9392,-8.9396,0,-8.7381,-8.7566,-8.757,-8.7698,-8.7902,-8.7881,-8.8083,-8.8114,-8.818,-8.831,-8.8248,-8.8371,-8.835,-8.8472,-8.8465,-8.866,-8.8689,-8.8697,-8.8693,-8.8704,-8.8703,-8.8748,-8.8727,-8.8678,-8.8675,-8.8673,-8.8671,0,-8.702,-8.7238,-8.7445,-8.7496,-8.759,-8.7687,-8.773,-8.7803,-8.7882,-8.7984,-8.8035,-8.8154,-8.822,-8.8312,-8.8302,-8.8195,-8.854,-8.839,-8.8548,-8.8548,-8.8625,-8.862,-8.9086,-8.8667,-8.8667,-8.8666,-8.8665,0,-8.6743,-8.6851,-8.7148,-8.7225,-8.7283,-8.7418,-8.7536,-8.7651,-8.7732,-8.7738,-8.7817,-8.7775,-8.7945,-8.7797,-8.803,-8.7894,-8.7961,-8.7984,-8.7995,-8.8011,-8.7845,-8.8109,-8.8551,-8.8598,-8.8024,-8.8019,-8.8014,0,-8.6327,-8.663,-8.6615,-8.6897,-8.7037,-8.6959,-8.7108,-8.7182,-8.7202,-8.732,-8.7339,-8.7475,-8.7364,-8.7406,-8.7522,-8.7547,-8.7724,-8.7523,-8.7691,-8.7698,-8.7674,-8.8081,-8.8148,-8.8454,-8.7946,-8.7953,-8.7958,0,-8.6005,-8.612,-8.6172,-8.6229,-8.6326,-8.6442,-8.6613,-8.6744,-8.6824,-8.6914,-8.7056,-8.7245,-8.7169,-8.7239,-8.7217,-8.7338,-8.7603,-8.724,-8.7241,-8.7306,-8.7911,-8.7973,-8.8025,-8.7561,-8.757,-8.7576,-8.7904,0,-8.5586,-8.5739,-8.5878,-8.6007,-8.6097,-8.6273,-8.6276,-8.6369,-8.634,-8.6356,-8.6564,-8.6623,-8.6754,-8.6811,-8.6783,-8.7059,-8.7013,-8.693,-8.6786,-8.7053,-8.7161,-8.7205,-8.6626,-8.6621,-8.6618,-8.6615,0,0,-8.5185,-8.5404,-8.5382,-8.5549,-8.5623,-8.554,-8.5728,-8.579,-8.5917,-8.5969,-8.5889,-8.6165,-8.6217,-8.6469,-8.6552,-8.6604,-8.6653,-8.656,-8.6926,-8.6961,-8.6993,-8.7108,-8.7154,-8.6608,-8.6607,-8.6606,-8.6605,0,-8.5033,-8.5093,-8.528,-8.5344,-8.5438,-8.5447,-8.5492,-8.5569,-8.5588,-8.5792,-8.5718,-8.5842,-8.6063,-8.6128,-8.619,-8.653,-8.6466,-8.6569,-8.6753,-8.689,-8.6929,-8.6964,-8.7086,-8.713,-8.6596,-8.6597,-8.6597,0,-8.4717,-8.4776,-8.4867,-8.5033,-8.5094,-8.5239,-8.5089,-8.5248,-8.5355,-8.5252,-8.5456,-8.5489,-8.5575,-8.5813,-8.5919,-8.5849,-8.6296,-8.6155,-8.6177,-8.6189,-8.6322,-8.6369,-8.6411,-8.5854,-8.5852,-8.5849,0,0,-8.4585,-8.4727,-8.4784,-8.5001,-8.5044,-8.5059,-8.5136,-8.5115,-8.5197,-8.5229,-8.527,-8.535,-8.5477,-8.5562,-8.5682,-8.5943,-8.5959,-8.6063,-8.6098,-8.6127,-8.6154,-8.6294,-8.6341,-8.584,-8.584,-8.5839,0,0,-8.4521,-8.4597,-8.4554,-8.4806,-8.4887,-8.4956,-8.5087,-8.5035,-8.5144,-8.5124,-8.5093,-8.5113,-8.5335,-8.537,-8.524,-8.563,-8.5488,-8.5519,-8.56,-8.5644,-8.5679,-8.5666,-8.5093,0,0,0,0,0,-8.4367,-8.4587,-8.4548,-8.459,-8.4799,-8.4978,-8.5004,-8.4986,-8.4886,-8.499,-8.5016,-8.4943,-8.5294,-8.5178,-8.522,-8.5365,-8.5714,-8.5737,-8.5758,-8.5924,-8.597,-8.6009,0,0,0,0,0,0,-8.4384,-8.4436,-8.4542,-8.462,-8.4667,-8.497,-8.4796,-8.4797,-8.4874,-8.4857,-8.494,-8.4946,-8.4931,-8.5155,-8.5193,-8.5332,-8.508,-8.5723,-8.5742,-8.5759,-8.594,-8.5977,-8.601,0,0,0,0,0,-8.4397,-8.4439,-8.478,-8.4616,-8.4657,-8.4686,-8.4788,-8.4787,-8.4846,-8.4887,-8.489,-8.4825,-8.4936,-8.4966,-8.5178,-8.5315,-8.5054,-8.5068,-8.5735,-8.575,-8.5764,-8.5958,0,0,0,0,0,0,-8.4406,-8.4439,-8.4787,-8.4799,-8.4532,-8.4668,-8.4689,-8.4779,-8.487,-8.4875,-8.4769,-8.4755,-8.4942,-8.4964,-8.4988,-8.5311,-8.5033,-8.5047,-8.5056,-8.5747,-8.5758,-8.5769,0,0,0,0,0,0,-8.4416,-8.4449,-8.4793,-8.4688,-8.4687,-8.4652,-8.4671,-8.4847,-8.4872,-8.4746,-8.4737,-8.4762,-8.4905,-8.4964,-8.4982,-8.5258,-8.5017,-8.503,-8.504,-8.5046,-8.5756,-8.5765,0,0,0,0,0,0,-8.4429,-8.4458,-8.4685,-8.4684,-8.4683,-8.4811,-8.4807,-8.5021,-8.4785,-8.4743,-8.4763,-8.4752,-8.4907,-8.4925,-8.4979,-8.5247,-8.5255,-8.5017,-8.5026,-8.5033,-8.5037,0,0,0,0,0,0,0,-8.444,-8.4254,-8.4719,-8.4681,-8.468,-8.4906,-8.4909,-8.4912,-8.4782,-8.4774,-8.4765,-8.4757,-8.4938,-8.4953,-8.4968,-8.5239,0,0,-8.5016,-8.5022,0,0,0,0,0,0,0,0,-8.4241,-8.4251,-8.472,-8.4722,-8.4724,-8.4906,-8.4909,-8.4911,-8.4781,-8.4774,-8.4767,-8.476,-8.4942,-8.4954,-8.4967,0,0,0,0,0,0,0,0,0,0,0,0,0,0,0,-8.472,-8.4722,0,-8.4906,-8.4908,-8.4911,-8.478,-8.4774,-8.4768,-8.4763,-8.4946,-8.4956,-8.4966,0,0,0,0,0,0,0,0,0,0,0,0,0,0,0,0,0,0,0,0,0,0,0,0,0,0,0,0,0,0,0,0,0,0,0,0,0,0,0,0,0,0,0,0,0,0,0,0,0,0,0,0,0,0,0,0,0,0,0,0,0,0,0,0,0,0,0,0,0]}]]]